User: anonymous   Login
Location: Unspecified
(0.0000°N, 0.0000°E)
Time: 18:15:09
(UTC+00:00)
Language:

Tiangong 1 - Orbit

View from above orbital plane
View from above orbital plane
View from above satellite
View from above satellite

Ground track
Ground track

The orbit data is extracted from the following two-line orbital elements,

1 37820U 11053A   15025.46638911  .00033683  00000-0  29956-3 0  7840
2 37820 042.7691 052.4309 0013488 232.7354 273.2406 15.67739374190943
Epoch (UTC): 25 January 2015 11:11:36
Eccentricity: 0.0013488
inclination: 42.7691°
perigee height: 356 km
apogee height: 374 km
right ascension of ascending node: 52.4309°
argument of perigee: 232.7354°
revolutions per day: 15.67739374
mean anomaly at epoch: 273.2406°
orbit number at epoch: 19094

The dashed part of the orbit path shows where the satellite is in the earth's shadow,  

DLR